F1ZRP-13 Weather Reports


time (UTC)temp
F
wind
direction
speed
knots
gust
knots
rain 1hr
in
rain 24hr
in
rain mn
in
humidity
%
barometer
mb
20260504221233 57 0.0 0.0 0.00 0.00 0.00 79 1013.2
20260504215708 57 0.0 0.0 0.00 0.00 0.00 79 1013.4
20260504213945 57 0.0 0.0 0.00 0.00 0.00 78 1013.5
20260504212154 57 0.0 0.0 0.00 0.00 0.00 78 1013.7
20260504210443 57 0.0 0.0 0.00 0.00 0.00 77 1013.8
20260504205018 57 0.0 0.0 0.00 0.00 0.00 77 1013.9
20260504203639 58 0.0 0.0 0.00 0.00 0.00 77 1014.0
20260504202328 58 0.0 0.0 0.00 0.00 0.00 76 1014.0
20260504200540 58 0.0 0.0 0.00 0.00 0.00 76 1014.1
20260504195134 58 0.0 0.0 0.00 0.00 0.00 76 1014.0
20260504193820 58 0.0 0.0 0.00 0.00 0.00 75 1013.9
20260504192307 58 0.0 0.0 0.00 0.00 0.00 75 1013.8
20260504190315 59 0.0 0.0 0.00 0.00 0.00 74 1013.7
20260504185037 59 0.0 0.0 0.00 0.00 0.00 73 1013.7
20260504183828 59 0.0 0.0 0.00 0.00 0.00 72 1013.6
20260504182724 59 0.0 0.0 0.00 0.00 0.00 72 1013.6
20260504181716 59 0.0 0.0 0.00 0.00 0.00 72 1013.7
20260504180535 60 0.0 0.0 0.00 0.00 0.00 71 1013.6
20260504174604 60 0.0 0.0 0.00 0.00 0.00 70 1013.6
20260504172808 60 0.0 0.0 0.00 0.00 0.00 71 1013.7
20260504171419 60 0.0 0.0 0.00 0.00 0.00 70 1013.7
20260504160328 61 0.0 0.0 0.00 0.00 0.00 70 1014.0
20260504150614 61 0.0 0.0 0.00 0.00 0.00 69 1014.3
20260504130644 62 0.0 0.0 0.00 0.00 0.00 72 1015.0
20260504100141 61 0.0 0.0 0.00 0.00 0.00 73 1015.7
20260504081838 61 0.0 0.0 0.00 0.00 0.00 69 1015.5
20260504080311 60 0.0 0.0 0.00 0.00 0.00 70 1015.4
20260504070320 56 0.0 0.0 0.00 0.00 0.00 79 1014.9
20260504060125 52 0.0 0.0 0.00 0.00 0.00 82 1014.8
20260504045210 50 0.0 0.0 0.00 0.00 0.00 84 1014.7
20260504043634 50 0.0 0.0 0.00 0.00 0.00 84 1014.7
20260504042104 50 0.0 0.0 0.00 0.00 0.00 84 1014.7
20260504040500 49 0.0 0.0 0.00 0.00 0.00 84 1014.6
20260504035147 49 0.0 0.0 0.00 0.00 0.00 83 1014.7
20260504033453 50 0.0 0.0 0.00 0.00 0.00 84 1014.8
20260504032048 49 0.0 0.0 0.00 0.00 0.00 84 1014.8
20260504030422 49 0.0 0.0 0.00 0.00 0.00 85 1014.8
20260504024800 49 0.0 0.0 0.00 0.00 0.00 85 1014.8
20260504023322 49 0.0 0.0 0.00 0.00 0.00 84 1014.9
20260504021314 50 0.0 0.0 0.00 0.00 0.00 83 1014.7
20260504015839 50 0.0 0.0 0.00 0.00 0.00 83 1014.7
20260504014349 50 0.0 0.0 0.00 0.00 0.00 83 1014.8
20260504012902 50 0.0 0.0 0.00 0.00 0.00 84 1014.9
20260504011718 50 0.0 0.0 0.00 0.00 0.00 84 1014.9
20260504010100 51 0.0 0.0 0.00 0.00 0.00 83 1015.0
20260504004400 51 0.0 0.0 0.00 0.00 0.00 83 1015.0
20260504002824 51 0.0 0.0 0.00 0.00 0.00 84 1014.9
20260504001208 51 0.0 0.0 0.00 0.00 0.00 83 1014.8
20260504000116 51 0.0 0.0 0.00 0.00 0.00 83 1014.8
20260503234550 52 0.0 0.0 0.00 0.00 0.00 81 1014.7
20260503233040 52 0.0 0.0 0.00 0.00 0.00 82 1014.7
20260503231539 53 0.0 0.0 0.00 0.00 0.00 82 1014.7
20260503230052 52 0.0 0.0 0.00 0.00 0.00 81 1014.7
20260503224100 53 0.0 0.0 0.00 0.00 0.00 81 1014.9
20260503222533 53 0.0 0.0 0.00 0.00 0.00 80 1015.0